{"data":{"norad_id":63069,"epoch":"2026-05-25T03:44:57.649056Z","epoch_age_seconds":61316,"freshness":"FRESH","line1":"1 63069U 25035T   26145.15622279  .00012907  00000+0  47755-3 0  9990","line2":"2 63069  42.9994  75.2909 0001449 267.7124  92.3562 15.27592974 71413","mean_motion":15.27592974,"eccentricity":0.0001449,"inclination_deg":42.9994,"raan_deg":75.2909,"arg_perigee_deg":267.7124,"mean_anomaly_deg":92.3562,"bstar":0.00047755,"rev_number":7141,"period_min":94.265948096721,"perigee_km":482.01606725507,"apogee_km":484.0044277274,"semimajor_km":6861.1472474912,"source":"CELESTRAK","updated_at":"2026-05-25T13:38:19.874945Z"}}